Track BRITE-U UNIBRITE now! 10-day predictions BRITE-U UNIBRITE is classified as:
1 39092U 13009G 25186.50707343 .00000152 00000-0 66781-4 0 9997 2 39092 98.3928 9.7961 0009022 183.8991 176.2126 14.36192483647225